Regional Weather Roundup
Issued by NWS Cleveland, OH

Home | Current Version | Previous Version | Text Only | Print | Product List | Glossary On
Versions: 1 2 3 4 5 6 7 8 9 10 11 12 13 14 15 16 17 18 19 20 21 22 23 24 25 26 27 28 29 30 31 32 33 34 35 36 37 38 39 40 41 42 43 44 45 46 47 48 49 50
000
ASUS41 KCLE 250900
RWRCLE
OHIO REGIONAL WEATHER ROUNDUP
NATIONAL WEATHER SERVICE WILMINGTON, OH
500 AM EDT MON JUL 25 2016

NOTE: "FAIR" INDICATES FEW OR NO CLOUDS BELOW 12,000 FEET WITH NO
SIGNIFICANT WEATHER AND/OR OBSTRUCTIONS TO VISIBILITY.

OHZ001>008-015>018-024>027-034-035-043-044-251000-
   NORTHWEST OHIO

CITY           SKY/WX    TMP DP  RH WIND       PRES   REMARKS
DEFIANCE       FAIR      76  66  71 CALM      29.94R
FINDLAY        FAIR      79  73  82 W8        29.93R
TOLEDO EXPRESS CLOUDY    73  73 100 S3        29.91F
TOLEDO EXEC    FAIR      78  75  90 NW5       29.91F
LIMA           FAIR      77  76  96 W9        29.96R
$$

OHZ009>014-019>023-028>033-038-089-251000-
   NORTHEAST OHIO

CITY           SKY/WX    TMP DP  RH WIND       PRES   REMARKS
CLE-HOPKINS    MOCLDY    79  70  74 SW8       29.95R
CLE-LAKEFRONT  FAIR      82  72  71 S15G23    29.91R
CUY CO. ARPT   NOT AVBL
LORAIN-ELYRIA  FAIR      76  71  85 SW8       29.94R
ASHTABULA      FAIR      75  72  90 SW7       29.94S
AKRON-CANTON   FAIR      73  69  87 SW6       29.98R
WOOSTER        NOT AVBL
MANSFIELD      FAIR      76  74  93 S9        29.98R
YOUNGSTOWN     CLOUDY    73  70  90 S6        29.97S
$$

OHZ042-051>053-060>062-070>072-077>081-251000-
  SOUTHWEST OHIO

CITY           SKY/WX    TMP DP  RH WIND       PRES   REMARKS
CINC-COVINGTON MOCLDY    76  75  97 SW3       30.01S
CINC-LUNKEN    FAIR      75  75 100 S3        29.99F
HAMILTON       FAIR      76  73  91 NW5       29.99F
DAYTON         NOT AVBL
WRIGHT-PAT AFB FAIR      78  77  96 SW7       29.97F
DAYTON GENERAL FAIR      79  74  84 SW6       29.98F
WILMINGTON     FAIR      75  74  96 SW3       30.00F
$$

OHZ036-037-039>041-045>050-054>059-063>069-073>076-082>088-251000-
  CENTRAL AND SOUTHEAST OHIO

CITY           SKY/WX    TMP DP  RH WIND       PRES   REMARKS
COLUMBUS       MOCLDY    78  74  87 SE5       29.97S
OSU AIRPORT    FAIR      78  74  87 SW6       29.97S
BOLTON FIELD   NOT AVBL
RICKENBACK AFB NOT AVBL
NEWARK         FAIR      75  73  93 CALM      29.98R
MARION         FAIR      75  72  90 S6        29.97R
LANCASTER      FAIR      77  74  90 SW5       29.99S
ZANESVILLE     FAIR      77  72  84 SW5       29.99R
NEW PHILLY     FAIR      75  70  84 CALM      29.99R
$$



USA.gov is the U.S. government's official web portal to all federal, state and local government web resources and services.